EN

Hourly Weather Hersonskiy

Today, 23 October, Friday

Time Temperature Precipitation Wind Pressure Humidity
00:00 +11°C° 0 mm 1 mps 735 mmHg 75%
01:00 +11°C° 0 mm 1 mps 735 mmHg 75%
02:00 +10°C° 0 mm 1 mps 735 mmHg 75%
03:00 +10°C° 0 mm 1 mps 735 mmHg 75%
04:00 +10°C° 0 mm 1 mps 735 mmHg 74%
05:00 +10°C° 0 mm 1 mps 735 mmHg 73%
06:00 +10°C° 0 mm 1 mps 735 mmHg 72%
07:00 +11°C° 0 mm 1 mps 735 mmHg 64%
08:00 +13°C° 0 mm 1 mps 735 mmHg 57%
09:00 +14°C° 0 mm 1 mps 736 mmHg 50%
10:00 +16°C° 0 mm 1 mps 735 mmHg 44%
11:00 +19°C° 0 mm 1 mps 735 mmHg 39%
12:00 +21°C° 0 mm 1 mps 735 mmHg 34%
13:00 +21°C° 0 mm 1 mps 735 mmHg 33%
14:00 +22°C° 0 mm 1 mps 735 mmHg 32%
15:00 +22°C° 0 mm 1 mps 734 mmHg 31%
16:00 +20°C° 0 mm 1 mps 734 mmHg 37%
17:00 +18°C° 0 mm 1 mps 734 mmHg 44%
18:00 +14°C° 0 mm 0 mps 734 mmHg 50%
19:00 +14°C° 0 mm 0 mps 733 mmHg 50%
20:00 +14°C° 0 mm 0 mps 733 mmHg 51%
21:00 +14°C° 0 mm 1 mps 733 mmHg 52%
22:00 +14°C° 0 mm 1 mps 733 mmHg 52%
23:00 +14°C° 0 mm 1 mps 732 mmHg 52%

Tomorrow, 24 October, Saturday

Time Temperature Precipitation Wind Pressure Humidity
00:00 +13°C° 0 mm 1 mps 732 mmHg 52%
01:00 +13°C° 0 mm 1 mps 732 mmHg 52%
02:00 +13°C° 0 mm 1 mps 732 mmHg 52%
03:00 +12°C° 0 mm 1 mps 732 mmHg 52%
04:00 +12°C° 0 mm 1 mps 732 mmHg 52%
05:00 +12°C° 0 mm 1 mps 732 mmHg 52%
06:00 +12°C° 0 mm 1 mps 732 mmHg 51%
07:00 +13°C° 0 mm 1 mps 732 mmHg 48%
08:00 +15°C° 0 mm 1 mps 732 mmHg 44%
09:00 +18°C° 0 mm 1 mps 732 mmHg 40%
10:00 +20°C° 0 mm 1 mps 732 mmHg 35%
11:00 +21°C° 0 mm 1 mps 732 mmHg 30%
12:00 +23°C° 0 mm 1 mps 732 mmHg 25%
13:00 +23°C° 0 mm 1 mps 731 mmHg 24%
14:00 +24°C° 0 mm 1 mps 731 mmHg 22%
15:00 +24°C° 0 mm 1 mps 731 mmHg 21%
16:00 +22°C° 0 mm 1 mps 731 mmHg 25%
17:00 +20°C° 0 mm 1 mps 731 mmHg 29%
18:00 +18°C° 0 mm 1 mps 730 mmHg 33%
19:00 +16°C° 0 mm 1 mps 731 mmHg 33%
20:00 +16°C° 0 mm 1 mps 731 mmHg 34%
21:00 +15°C° 0 mm 1 mps 731 mmHg 35%
22:00 +15°C° 0 mm 1 mps 731 mmHg 35%
23:00 +14°C° 0 mm 1 mps 730 mmHg 36%

Day after tomorrow, 25 October, Sunday

Time Temperature Precipitation Wind Pressure Humidity
00:00 +14°C° 0 mm 1 mps 730 mmHg 36%
01:00 +13°C° 0 mm 1 mps 730 mmHg 38%
02:00 +13°C° 0 mm 1 mps 730 mmHg 39%
03:00 +13°C° 0 mm 1 mps 730 mmHg 41%
04:00 +12°C° 0 mm 1 mps 730 mmHg 42%
05:00 +12°C° 0 mm 1 mps 730 mmHg 43%
06:00 +12°C° 0 mm 1 mps 730 mmHg 45%
07:00 +14°C° 0 mm 1 mps 730 mmHg 42%
08:00 +15°C° 0 mm 1 mps 730 mmHg 40%
09:00 +18°C° 0 mm 1 mps 731 mmHg 38%
10:00 +19°C° 0 mm 1 mps 731 mmHg 34%
11:00 +21°C° 0 mm 1 mps 730 mmHg 30%
12:00 +21°C° 0 mm 2 mps 730 mmHg 26%
13:00 +23°C° 0 mm 2 mps 730 mmHg 26%
14:00 +23°C° 0 mm 2 mps 730 mmHg 26%
15:00 +24°C° 0 mm 2 mps 730 mmHg 26%
16:00 +20°C° 0 mm 2 mps 730 mmHg 30%
17:00 +19°C° 0 mm 1 mps 730 mmHg 35%
18:00 +16°C° 0 mm 1 mps 730 mmHg 39%
19:00 +16°C° 0 mm 1 mps 731 mmHg 41%
20:00 +15°C° 0 mm 1 mps 731 mmHg 43%
21:00 +14°C° 0 mm 0 mps 731 mmHg 45%
22:00 +13°C° 0 mm 0 mps 731 mmHg 47%
23:00 +13°C° 0 mm 0 mps 731 mmHg 50%

, 26 October, Monday

Time Temperature Precipitation Wind Pressure Humidity
00:00 +12°C° 0 mm 0 mps 731 mmHg 52%
01:00 +12°C° 0 mm 0 mps 731 mmHg 54%
02:00 +13°C° 0 mm 1 mps 731 mmHg 55%
03:00 +12°C° 0 mm 1 mps 731 mmHg 57%
04:00 +12°C° 0 mm 1 mps 732 mmHg 57%
05:00 +12°C° 0 mm 1 mps 732 mmHg 58%
06:00 +12°C° 0 mm 1 mps 732 mmHg 58%
07:00 +13°C° 0 mm 2 mps 732 mmHg 57%
08:00 +14°C° 0 mm 2 mps 733 mmHg 55%
09:00 +15°C° 0 mm 2 mps 733 mmHg 54%
10:00 +17°C° 0 mm 3 mps 733 mmHg 53%
11:00 +18°C° 0 mm 3 mps 733 mmHg 52%
12:00 +20°C° 0 mm 4 mps 733 mmHg 51%
13:00 +20°C° 0 mm 4 mps 733 mmHg 51%
14:00 +20°C° 0 mm 4 mps 733 mmHg 52%
15:00 +20°C° 0 mm 4 mps 733 mmHg 52%
16:00 +19°C° 0 mm 4 mps 733 mmHg 59%
17:00 +17°C° 0 mm 3 mps 733 mmHg 66%
18:00 +16°C° 0 mm 3 mps 733 mmHg 72%
19:00 +14°C° 0 mm 3 mps 733 mmHg 73%
20:00 +13°C° 0 mm 4 mps 733 mmHg 75%
21:00 +13°C° 0 mm 4 mps 733 mmHg 76%
22:00 +12°C° 0 mm 4 mps 733 mmHg 76%
23:00 +12°C° 0 mm 4 mps 733 mmHg 76%

26 October, Monday

Time Temperature Precipitation Wind Pressure Humidity
00:00 +12°C° 0 mm 0 mps 731 mmHg 52%
01:00 +12°C° 0 mm 0 mps 731 mmHg 54%
02:00 +13°C° 0 mm 1 mps 731 mmHg 55%
03:00 +12°C° 0 mm 1 mps 731 mmHg 57%
04:00 +12°C° 0 mm 1 mps 732 mmHg 57%
05:00 +12°C° 0 mm 1 mps 732 mmHg 58%
06:00 +12°C° 0 mm 1 mps 732 mmHg 58%
07:00 +13°C° 0 mm 2 mps 732 mmHg 57%
08:00 +14°C° 0 mm 2 mps 733 mmHg 55%
09:00 +15°C° 0 mm 2 mps 733 mmHg 54%
10:00 +17°C° 0 mm 3 mps 733 mmHg 53%
11:00 +18°C° 0 mm 3 mps 733 mmHg 52%
12:00 +20°C° 0 mm 4 mps 733 mmHg 51%
13:00 +20°C° 0 mm 4 mps 733 mmHg 51%
14:00 +20°C° 0 mm 4 mps 733 mmHg 52%
15:00 +20°C° 0 mm 4 mps 733 mmHg 52%
16:00 +19°C° 0 mm 4 mps 733 mmHg 59%
17:00 +17°C° 0 mm 3 mps 733 mmHg 66%
18:00 +16°C° 0 mm 3 mps 733 mmHg 72%
19:00 +14°C° 0 mm 3 mps 733 mmHg 73%
20:00 +13°C° 0 mm 4 mps 733 mmHg 75%
21:00 +13°C° 0 mm 4 mps 733 mmHg 76%
22:00 +12°C° 0 mm 4 mps 733 mmHg 76%
23:00 +12°C° 0 mm 4 mps 733 mmHg 76%

27 October, Tuesday

Time Temperature Precipitation Wind Pressure Humidity
00:00 +12°C° 0 mm 4 mps 733 mmHg 76%
01:00 +11°C° 0 mm 4 mps 733 mmHg 76%
02:00 +10°C° 0 mm 5 mps 733 mmHg 76%
03:00 +9°C° 0 mm 5 mps 733 mmHg 77%
04:00 +9°C° 0 mm 5 mps 733 mmHg 75%
05:00 +8°C° 0 mm 5 mps 733 mmHg 73%
06:00 +8°C° 0 mm 5 mps 734 mmHg 72%
07:00 +9°C° 0 mm 6 mps 734 mmHg 69%
08:00 +10°C° 0 mm 6 mps 734 mmHg 67%
09:00 +11°C° 0 mm 7 mps 734 mmHg 64%
10:00 +12°C° 0 mm 7 mps 734 mmHg 60%
11:00 +15°C° 0 mm 7 mps 734 mmHg 56%
12:00 +16°C° 0 mm 7 mps 734 mmHg 52%
13:00 +16°C° 0 mm 8 mps 734 mmHg 52%
14:00 +17°C° 0 mm 8 mps 734 mmHg 51%
15:00 +17°C° 0 mm 8 mps 734 mmHg 50%
16:00 +16°C° 0 mm 8 mps 734 mmHg 53%
17:00 +14°C° 0 mm 7 mps 734 mmHg 56%
18:00 +12°C° 0 mm 7 mps 734 mmHg 58%
19:00 +12°C° 0 mm 7 mps 734 mmHg 60%
20:00 +11°C° 0 mm 7 mps 734 mmHg 61%
21:00 +11°C° 0 mm 7 mps 734 mmHg 62%
22:00 +10°C° 0 mm 7 mps 734 mmHg 65%
23:00 +10°C° 0 mm 7 mps 734 mmHg 69%

28 October, Wednesday

Time Temperature Precipitation Wind Pressure Humidity
00:00 +9°C° 0 mm 7 mps 733 mmHg 72%
01:00 +9°C° 0 mm 6 mps 733 mmHg 76%
02:00 +9°C° 0 mm 6 mps 733 mmHg 80%
03:00 +8°C° 0 mm 6 mps 733 mmHg 84%
04:00 +8°C° 0 mm 6 mps 733 mmHg 84%
05:00 +8°C° 0 mm 6 mps 733 mmHg 84%
06:00 +8°C° 0 mm 6 mps 733 mmHg 84%
07:00 +9°C° 0 mm 6 mps 733 mmHg 79%
08:00 +10°C° 0 mm 6 mps 733 mmHg 74%
09:00 +11°C° 0 mm 6 mps 733 mmHg 68%
10:00 +14°C° 0 mm 6 mps 733 mmHg 63%
11:00 +16°C° 0 mm 6 mps 733 mmHg 57%
12:00 +17°C° 0 mm 6 mps 733 mmHg 51%
13:00 +17°C° 0 mm 6 mps 733 mmHg 52%
14:00 +17°C° 0 mm 6 mps 732 mmHg 52%
15:00 +17°C° 0 mm 6 mps 732 mmHg 53%
16:00 +16°C° 0 mm 6 mps 732 mmHg 59%
17:00 +14°C° 0 mm 6 mps 732 mmHg 66%
18:00 +12°C° 0 mm 5 mps 732 mmHg 72%
19:00 +12°C° 0 mm 5 mps 732 mmHg 74%
20:00 +12°C° 0 mm 5 mps 732 mmHg 76%
21:00 +10°C° 0 mm 5 mps 732 mmHg 78%
22:00 +11°C° 0 mm 4 mps 732 mmHg 80%
23:00 +10°C° 0 mm 4 mps 731 mmHg 82%
Show more

We Need Your Consent

Meteoprog and our Service Providers may store and access personal data such as cookies, device identifiers or other similar technologies on your device and process such data to personalise content and ads, as well as provide social media features and to analyse the traffic.

  • Store and/or access information on your device

    Cookies, device identifiers or other information can be stored or accessed on your device for the purposes indicated above.

  • Personalised ads and content, ad and content measurement, audience insights, and products development

    Ads and content can be personalised based on a profile. More data can be added to better personalise ads and content. Ad and content performance can be measured. Insights about the audience who saw the ads and content can be derived. Such data can be used to develop or improve user’s experience, systems and software.

By clicking ‘I Agree’ you will allow the use of indicated cookies, device identifiers, web beacons or other similar technologies. Your settings can be changed in the browser on your device.

For certain purposes, legitimate interests may be relied on, rather than consent. You can read more about this in our Privacy and Cookie Policy.